CW9809 Weather Reports


Display with metric or nautical units.
time (UTC)temp
F
wind
direction
speed
MPH
gust
MPH
rain 1hr
in
rain 24hr
in
rain mn
in
humidity
%
barometer
mb
20220813221536 72 10 1.0 7.0 0.00 0.00 0.00 46 1016.9
20220813220107 74 48 5.0 10.0 0.00 0.00 0.00 43 1016.9
20220813214536 74 45 5.0 9.0 0.00 0.00 0.00 43 1016.9
20220813213040 74 56 0.0 7.0 0.00 0.00 0.00 45 1016.9
20220813211541 74 23 2.0 8.0 0.00 0.00 0.00 45 1016.8
20220813210033 74 20 0.0 10.0 0.00 0.00 0.00 49 1016.9
20220813204545 72 4 0.0 6.0 0.00 0.00 0.00 48 1017.0
20220813203038 73 11 0.0 6.0 0.00 0.00 0.00 47 1017.1
20220813201603 74 299 2.0 8.0 0.00 0.00 0.00 45 1017.1
20220813200033 74 13 0.0 9.0 0.00 0.00 0.00 46 1017.1
20220813194528 73 36 0.0 7.0 0.00 0.00 0.00 47 1017.3
20220813193035 72 40 4.0 9.0 0.00 0.00 0.00 46 1017.6
20220813191528 73 39 1.0 8.0 0.00 0.00 0.00 45 1017.4
20220813190032 73 45 5.0 8.0 0.00 0.00 0.00 47 1017.5
20220813184537 72 40 2.0 14.0 0.00 0.00 0.00 46 1017.8
20220813183030 72 308 4.0 8.0 0.00 0.00 0.00 46 1017.8
20220813181540 72 18 4.0 9.0 0.00 0.00 0.00 47 1017.9
20220813180028 73 35 0.0 6.0 0.00 0.00 0.00 44 1017.9
20220813174524 72 311 1.0 8.0 0.00 0.00 0.00 46 1018.0
20220813173028 71 25 5.0 11.0 0.00 0.00 0.00 46 1018.2
20220813171529 72 9 4.0 11.0 0.00 0.00 0.00 46 1018.5
20220813170020 72 18 1.0 7.0 0.00 0.00 0.00 48 1018.5
20220813164517 71 337 2.0 8.0 0.00 0.00 0.00 49 1018.5
20220813163033 70 341 2.0 10.0 0.00 0.00 0.00 50 1018.6
20220813161521 70 27 3.0 10.0 0.00 0.00 0.00 50 1018.7
20220813160018 70 29 4.0 9.0 0.00 0.00 0.00 51 1018.6
20220813154515 70 359 5.0 10.0 0.00 0.00 0.00 51 1018.6
20220813153028 70 321 2.0 7.0 0.00 0.00 0.00 49 1018.5
20220813151513 71 332 3.0 8.0 0.00 0.00 0.00 50 1018.5
20220813150016 70 48 0.0 6.0 0.00 0.00 0.00 51 1018.4
20220813144508 70 347 0.0 9.0 0.00 0.00 0.00 53 1018.5
20220813143008 69 26 3.0 10.0 0.00 0.00 0.00 55 1018.6
20220813141501 67 33 5.0 11.0 0.00 0.00 0.00 56 1018.9
20220813140114 66 359 4.0 11.0 0.00 0.00 0.00 59 1018.8
20220813134601 65 16 5.0 13.0 0.00 0.00 0.00 60 1018.9
20220813133110 64 17 3.0 9.0 0.00 0.00 0.00 63 1018.8
20220813131549 63 20 3.0 8.0 0.00 0.00 0.00 65 1018.5
20220813130105 63 9 0.0 8.0 0.00 0.00 0.00 67 1018.6
20220813124546 62 359 3.0 10.0 0.00 0.00 0.00 68 1018.7
20220813123045 61 14 6.0 11.0 0.00 0.00 0.00 68 1018.8
20220813121612 61 34 0.0 0.0 0.00 0.00 0.00 69 1018.7
20220813120101 60 31 0.0 6.0 0.00 0.00 0.00 70 1018.7
20220813114542 59 18 2.0 7.0 0.00 0.00 0.00 71 1018.7
20220813113113 58 37 0.0 5.0 0.00 0.00 0.00 74 1018.5
20220813111545 57 28 0.0 0.0 0.00 0.00 0.00 75 1018.5
20220813110045 56 26 0.0 0.0 0.00 0.00 0.00 76 1018.4
20220813104543 56 24 0.0 0.0 0.00 0.00 0.00 76 1018.3
20220813103036 56 25 0.0 0.0 0.00 0.00 0.00 75 1018.3
20220813101541 56 24 0.0 0.0 0.00 0.00 0.00 75 1018.2
20220813100035 56 24 0.0 0.0 0.00 0.00 0.00 75 1018.2
20220813094534 56 24 0.0 0.0 0.00 0.00 0.00 74 1018.1
20220813093035 57 24 0.0 0.0 0.00 0.00 0.00 73 1018.0
20220813091534 57 25 0.0 0.0 0.00 0.00 0.00 73 1018.1
20220813090045 57 25 0.0 0.0 0.00 0.00 0.00 72 1017.9
20220813084533 58 25 0.0 0.0 0.00 0.00 0.00 72 1017.8
20220813083029 57 22 0.0 0.0 0.00 0.00 0.00 73 1017.6
20220813081521 58 22 0.0 0.0 0.00 0.00 0.00 71 1017.5
20220813080031 58 22 0.0 0.0 0.00 0.00 0.00 69 1017.6
20220813074536 58 22 0.0 0.0 0.00 0.00 0.00 69 1017.5
20220813073045 58 22 0.0 0.0 0.00 0.00 0.00 69 1017.3
20220813071535 58 22 0.0 0.0 0.00 0.00 0.00 68 1017.3
20220813070017 59 23 0.0 0.0 0.00 0.00 0.00 68 1017.0
20220813064518 59 23 0.0 0.0 0.00 0.00 0.00 66 1017.1
20220813063011 60 23 0.0 0.0 0.00 0.00 0.00 64 1017.3
20220813061527 60 21 0.0 0.0 0.00 0.00 0.00 62 1017.3
20220813060016 61 48 0.0 2.0 0.00 0.00 0.00 61 1017.4
20220813054505 61 42 0.0 0.0 0.00 0.00 0.00 61 1017.5
20220813053021 61 42 0.0 0.0 0.00 0.00 0.00 60 1017.4
20220813051519 61 41 0.0 0.0 0.00 0.00 0.00 60 1017.4
20220813050010 62 42 0.0 0.0 0.00 0.00 0.00 58 1017.3
20220813044622 62 41 0.0 0.0 0.00 0.00 0.00 57 1017.3
20220813043103 62 42 0.0 0.0 0.00 0.00 0.00 58 1017.2
20220813041624 61 43 0.0 0.0 0.00 0.00 0.00 58 1017.0
20220813040054 62 43 0.0 0.0 0.00 0.00 0.00 57 1016.9
20220813034555 63 43 0.0 0.0 0.00 0.00 0.00 55 1016.8
20220813033052 64 41 0.0 6.0 0.00 0.00 0.00 54 1016.6
20220813031551 64 31 0.0 0.0 0.00 0.00 0.00 53 1016.6
20220813030051 64 10 0.0 0.0 0.00 0.00 0.00 52 1016.6
20220813024550 64 20 0.0 0.0 0.00 0.00 0.00 51 1016.6
20220813023110 65 11 0.0 0.0 0.00 0.00 0.00 50 1016.6
20220813021552 65 4 0.0 2.0 0.00 0.00 0.00 49 1016.7
20220813020048 66 18 0.0 0.0 0.00 0.00 0.00 47 1016.7
20220813014551 67 31 0.0 2.0 0.00 0.00 0.00 47 1016.6
20220813013046 67 8 0.0 0.0 0.00 0.00 0.00 46 1016.5
20220813011553 67 339 0.0 2.0 0.00 0.00 0.00 46 1016.4
20220813010104 68 12 0.0 0.0 0.00 0.00 0.00 44 1016.4
20220813004554 69 45 0.0 2.0 0.00 0.00 0.00 43 1016.1
20220813003046 69 46 0.0 0.0 0.00 0.00 0.00 42 1016.0
20220813001540 71 46 0.0 0.0 0.00 0.00 0.00 38 1015.8
20220813000110 72 46 0.0 1.0 0.00 0.00 0.00 36 1015.7
20220812234546 73 8 0.0 7.0 0.00 0.00 0.00 34 1015.7
20220812233049 74 12 3.0 9.0 0.00 0.00 0.00 34 1015.7
20220812231535 74 40 5.0 10.0 0.00 0.00 0.00 33 1015.4
20220812230049 75 39 5.0 11.0 0.00 0.00 0.00 32 1015.3
20220812224540 76 44 5.0 9.0 0.00 0.00 0.00 32 1015.2
20220812223036 76 344 2.0 10.0 0.00 0.00 0.00 29 1015.2